Hourly Weather Roundup
Issued by NWS Central Illinois

Home | Current Version | Previous Version | Text Only | Print | Product List | Glossary On
Versions: 1 2 3 4 5 6 7 8 9 10 11 12 13 14 15 16 17 18 19 20 21 22 23 24 25 26 27 28 29 30 31 32 33 34 35 36 37 38 39 40 41 42 43 44 45 46 47 48 49 50
000
NZUS43 KILX 040810
HWRILX

AREA WEATHER ROUNDUP
NATIONAL WEATHER SERVICE, LINCOLN IL
200 AM CST SUN DEC 04 2016


CITY           SKY/WX    TMP DP  RH WIND       PRES   REMARKS
BLOOMINGTON    CLOUDY    31  28  89 E8        30.22F WCI  23
CHAMPAIGN      CLOUDY    32  28  85 E6        30.22S WCI  26
DANVILLE       CLOUDY    32  28  85 E3        30.20S
DECATUR        CLOUDY   N/A N/A N/A E7        30.22S
EFFINGHAM      CLOUDY    36  32  86 E6        30.22F WCI  31
FLORA          CLOUDY    38  32  78 E7        30.20F WCI  33
GALESBURG      CLOUDY    32  29  88 E6        30.18F WCI  27
JACKSONVILLE   CLOUDY    36  32  87 E9        30.18S WCI  29
LACON          CLOUDY    32  27  83 E6        30.22F WCI  26
LAWRENCEVILLE  CLOUDY    37  31  78 NE6       30.22F WCI  32
LITCHFIELD     CLOUDY    36  32  86 E8        30.17F WCI  29
$$


CITY           SKY/WX    TMP DP  RH WIND       PRES   REMARKS
LINCOLN        CLOUDY    34  31  89 E5        30.22F WCI  30
MACOMB         CLOUDY    34  32  92 SE12      30.20S WCI  25
MATTOON        CLOUDY    34  28  79 E5        30.20F WCI  30
MT CARMEL AP   CLOUDY    37  31  81 NE5       30.21F WCI  33
OLNEY-NOBLE AP CLOUDY    36  32  87 E6        30.21F WCI  31
PARIS          CLOUDY    33  30  90 E5        30.24S WCI  28
PEORIA         CLOUDY    33  28  81 E5        30.21F WCI  29
PONTIAC        CLOUDY    32  31  96 CALM      30.25R
RANTOUL        CLOUDY    34  31  88 E3        30.22S
SPRINGFIELD    CLOUDY    36  31  82 E7        30.20F WCI  30
TAYLORVILLE    CLOUDY    34  31  88 E7        30.20F WCI  28
$$

...REGIONAL REPORTS...


CITY           SKY/WX    TMP DP  RH WIND       PRES   REMARKS
CHICAGO O`HARE CLOUDY    32  25  75 CALM      30.24S
KANKAKEE       CLOUDY    32  28  84 CALM      30.25R
MOLINE         CLOUDY    35  27  72 SE7       30.19F WCI  29
MOUNT STERLING CLOUDY    36  32  87 SE8       30.16S WCI  29
MOUNT VERNON   NOT AVBL
PITTSFIELD     CLOUDY    38  34  87 E5        30.16F WCI  34
QUINCY         CLOUDY    37  34  89 SE6       30.14F WCI  32
ROCKFORD       CLOUDY    33  27  78 S6        30.24S WCI  28
$$


CITY           SKY/WX    TMP DP  RH WIND       PRES   REMARKS
BURLINGTON     CLOUDY    35  31  85 E9        30.17F WCI  28
CEDAR RAPIDS   LGT SNOW  33  31  92 SE9       30.14F FOG     WCI  25
DES MOINES     LGT SNOW  36  34  92 SE10      30.08F FOG     WCI  28
KIRKSVILLE     CLOUDY    37  34  89 S7        30.14R WCI  32
OTTUMWA        LGT RAIN  37  32  82 SE13      30.12F WCI  29
ST LOUIS       CLOUDY    41  32  70 E8        30.16F
$$


CITY           SKY/WX    TMP DP  RH WIND       PRES   REMARKS
TERRE HAUTE    CLOUDY    34  29  82 E3        30.23F
EVANSVILLE     LGT RAIN  40  31  70 NE7       30.20F
INDIANAPOLIS   CLOUDY    34  28  79 E6        30.23F WCI  29
LAFAYETTE      MOCLDY    32  28  85 E7        30.24F WCI  26
MADISON        CLOUDY    32  26  78 S6        30.20F WCI  26
MILWAUKEE      CLOUDY    30  22  72 CALM      30.22F
$$






USA.gov is the U.S. government's official web portal to all federal, state and local government web resources and services.